Location: Baix
(44.7118°N, 4.7648°E)
Time: 17:10:35
(UTC+00:00)

SeaSat 1 - Pass Details

Date: 07 August 2020
Orbit: 744 x 748 km, 108.0° (Epoch: 22 September)

Event Time Altitude Azimuth Distance (km) Brightness Sun altitude
Rises 03:15:20 0° 29° (NNE) 3,200 7.1 -12.8°
Reaches altitude 10° 03:17:38 10° 33° (NNE) 2,273 6.2 -12.4°
Maximum altitude 03:22:33 66° 115° (ESE) 815 2.8 -11.8°
Drops below altitude 10° 03:27:27 10° 198° (SSW) 2,259 4.4 -11.1°
Enters shadow 03:27:41 - 199° (SSW) 2,357 4.5 -11.0°
